This demonstration page uses our WeatherBlox Daily Observations layout. Learn more.

Left ArrowRight Arrow

Hourly Observations for December 31, 2020

Temp ( °F °C ) Dew Point ( °F °C ) Humidity (%) Winds ( mph kmh ) Pressure ( in mb ) Visibility ( mi km ) Precip ( " mm )
12:54 am 00:54 Clear -2 -18.9 -5 -20.6 87 87 Calm 30.26 1025 10 16.0934 0 0
1:54 am 01:54 Clear -1 -18.3 -6 -21.1 79 79 Calm 30.24 1024 10 16.0934 0 0
2:52 am 02:52 Mostly Clear 0 -18 -6 -21 78 78 Calm 30.33 1027 10 16.0934 0 0
2:54 am 02:54 Mostly Clear 0 -17.8 -5 -20.6 79 79 Calm 30.24 1024 10 16.0934 0 0
3:54 am 03:54 Clear -4 -20 -8 -22.2 83 83 Calm 30.23 1024 10 16.0934 0 0
4:54 am 04:54 Clear -3 -19.4 -8 -22.2 79 79 NNW 3 6 30.22 1024 10 16.0934 0 0
5:54 am 05:54 Clear -2 -18.9 -7 -21.7 79 79 Calm 30.22 1024 10 16.0934 0 0
6:54 am 06:54 Clear -3 -19.4 -8 -22.2 79 79 Calm 30.23 1024 10 16.0934 0 0
7:54 am 07:54 Sunny -3 -19.4 -8 -22.2 79 79 Calm 30.24 1024 10 16.0934 0 0
8:54 am 08:54 Sunny 2 -16.7 -3 -19.4 80 80 Calm 30.24 1024 9 14.48406 0 0
9:54 am 09:54 Sunny 10 -12.2 7 -13.9 87 87 SSE 5 7 30.26 1025 10 16.0934 0 0
10:54 am 10:54 Sunny 25 -3.9 17 -8.3 72 72 S 16 26 30.25 1024 10 16.0934 0 0
11:54 am 11:54 Sunny 28 -2.2 19 -7.2 69 69 S 16 26 30.21 1023 10 16.0934 0 0
12:54 pm 12:54 Sunny 31 -0.6 21 -6.1 67 67 S 9 15 30.19 1023 10 16.0934 0 0
1:54 pm 13:54 Sunny 32 0 22 -5.6 66 66 S 15 24 30.21 1023 10 16.0934 0 0
2:54 pm 14:54 Sunny 33 0.6 22 -5.6 64 64 S 13 20 30.22 1023 10 16.0934 0 0
3:54 pm 15:54 Sunny 32 0 22 -5.6 66 66 Calm 30.2 1023 10 16.0934 0 0
4:54 pm 16:54 Sunny 30 -1.1 21 -6.1 69 69 SSE 3 6 30.2 1023 10 16.0934 0 0
5:54 pm 17:54 Clear 21 -6.1 15 -9.4 78 78 SSE 7 11 30.21 1023 10 16.0934 0 0
6:54 pm 18:54 Clear 24 -4.4 18 -7.8 77 77 Calm 30.21 1023 10 16.0934 0 0
7:54 pm 19:54 Clear 22 -5.6 17 -8.3 82 82 SSE 7 11 30.25 1024 10 16.0934 0 0
8:54 pm 20:54 Clear 22 -5.6 18 -7.8 85 85 S 8 13 30.24 1024 8 12.87472 0 0
9:54 pm 21:54 Clear with Mist and Fog 16 -8.9 12 -11.1 84 84 N 3 6 30.24 1024 6 9.65604 0 0
10:54 pm 22:54 Clear with Mist and Fog 17 -8.3 13 -10.6 84 84 Calm 30.24 1024 4 6.43736 0 0
11:42 pm 23:42 Partly Cloudy with Mist and Fog 13 -10.6 9 -12.8 84 84 N 8 13 30.25 1025 5 8.0467 0 0
11:48 pm 23:48 Mostly Cloudy with Mist and Fog 14 -10 10 -12 85 85 N 9 15 30.25 1024 2.5 4.02335 0 0
11:54 pm 23:54 Mostly Cloudy with Mist and Fog 14 -10 11 -11.7 88 88 NNW 9 15 30.2 1023 1 1.60934 0 0

Powered by AerisWeather